Dewpoint
59 60 61 62 63 64 68 68 67 68 72 75 75 75 75 75 77 74 73 74 73 71 73 73 71 76 75 76 75 75 76 74 73
53 56 59 61 63 65 68 68 70 70 70 72 73 72 75 75 75 76 74 76 75 74 73 71 73 76 76 76 75 76 76 75 74
51 52 54 56 59 62 65 68 69 70 69 70 70 71 72 74 75 75 75 77 75 76 76 75 75 75 75 73 75 75 75 75 74
50 51 52 54 57 58 61 63 65 67 67 70 70 70 72 73 73 73 75 75 75 75 75 75 75 75 74 75 74 74 74 75 75
49 50 50 50 53 56 57 59 61 62 65 65 68 70 71 72 73 72 72 73 75 75 75 76 76 74 74 74 74 75 74 74 73
50 49 50 51 52 57 58 59 62 60 62 65 66 70 69 71 72 70 72 72 73 73 73 75 75 75 74 75 74 74 74 74 74
46 48 50 52 53 56 59 61 63 64 63 64 65 66 66 69 68 70 72 70 72 71 73 73 72 72 74 75 74 74 74 74 74
45 46 47 52 51 55 58 59 62 62 62 62 63 64 64 66 69 70 72 72 72 71 72 72 72 72 73 73 73 71 73 74 74
45 48 48 49 52 55 57 59 61 61 62 62 63 63 64 66 68 69 70 71 71 72 71 72 72 71 71 71 69 66 66 71 74
47 46 47 50 53 57 59 59 60 59 60 61 62 64 64 65 66 67 68 69 70 70 70 71 71 71 72 71 71 66 66 67 69
47 47 49 54 55 57 59 57 58 60 59 60 61 62 63 63 65 65 66 67 68 69 70 70 70 70 71 71 71 65 64 65 69
47 48 51 51 50 51 57 58 59 59 59 58 59 60 62 61 61 62 64 64 66 67 68 68 69 70 70 70 70 65 63 65 71
46 46 47 47 48 49 50 55 54 56 55 56 57 59 60 61 61 61 61 62 64 65 67 68 68 68 70 68 70 66 62 64 70
46 44 44 48 50 51 53 54 53 54 54 55 58 58 58 60 60 61 60 61 62 64 65 66 68 69 70 70 70 70 63 61 69
43 43 45 49 50 52 52 53 52 53 54 56 57 57 57 57 59 59 57 60 61 63 64 65 66 68 67 66 69 65 64 59 60
41 44 50 50 50 52 52 53 53 53 54 56 56 54 53 56 58 58 59 60 61 61 62 64 64 63 61 62 67 69 60 59 60
44 48 50 50 52 52 53 54 54 54 54 55 54 54 53 53 55 55 58 60 60 61 61 61 63 63 62 63 66 66 69 68 66
47 49 50 52 53 52 53 53 53 53 54 53 52 52 53 53 53 56 58 62 63 63 62 62 61 61 61 61 59 63 59 58 63
48 49 51 52 52 52 52 52 51 53 53 53 53 52 52 53 54 55 57 61 62 59 55 53 50 48 52 59 55 52 50 50 48
46 47 49 51 52 52 52 52 52 52 54 53 53 52 52 53 54 55 57 61 62 62 60 54 52 50 48 48 52 49 46 46 46
Lifted_Index
-5 -5 -6 -7 -7 -8 -8 -8 -7 -7 -8 -8 -8 -8 -8 -8 -8 -8 -7 -7 -6 -5 -5 -5 -5 -6 -6 -6 -6 -6 -6 -6 -5
-4 -4 -5 -5 -6 -7 -7 -8 -7 -7 -7 -7 -8 -8 -7 -8 -8 -8 -8 -7 -7 -6 -5 -5 -5 -6 -6 -6 -6 -6 -6 -6 -6
-2 -2 -2 -3 -4 -5 -5 -6 -7 -7 -7 -7 -7 -7 -7 -7 -7 -7 -7 -7 -7 -7 -6 -6 -6 -6 -6 -5 -5 -6 -6 -6 -6
-1 -0 -0 -1 -1 -2 -3 -4 -4 -5 -5 -6 -6 -6 -6 -6 -6 -7 -7 -7 -7 -7 -6 -6 -6 -6 -6 -6 -6 -6 -6 -6 -6
1 1 1 1 1 1 -0 -1 -2 -2 -3 -4 -4 -5 -5 -5 -5 -6 -6 -6 -6 -6 -6 -6 -6 -6 -6 -6 -6 -6 -6 -6 -6
2 2 3 3 2 2 1 1 0 -0 -1 -2 -2 -3 -3 -4 -4 -4 -5 -5 -5 -6 -6 -6 -6 -6 -6 -6 -6 -6 -6 -6 -6
3 3 3 3 3 3 3 2 2 1 1 1 -0 -1 -2 -2 -3 -4 -4 -4 -4 -5 -5 -5 -5 -5 -6 -6 -6 -6 -6 -6 -6
4 4 4 4 4 4 4 4 3 3 3 2 2 1 -0 -1 -2 -3 -4 -4 -4 -4 -4 -5 -5 -5 -5 -5 -5 -5 -6 -6 -6
5 5 5 5 5 5 5 5 4 4 4 4 3 2 1 -0 -2 -3 -3 -3 -3 -4 -4 -4 -4 -5 -5 -5 -5 -4 -4 -5 -6
5 5 6 6 5 5 5 5 5 5 5 5 4 3 2 1 -0 -1 -2 -2 -2 -3 -3 -4 -4 -4 -5 -5 -5 -4 -4 -4 -4
5 6 6 6 5 5 5 5 6 6 6 6 5 4 3 3 2 1 0 -0 -1 -2 -2 -3 -4 -4 -4 -5 -5 -5 -4 -4 -4
6 6 6 6 6 6 6 6 6 6 6 6 6 5 4 4 4 4 3 2 1 -0 -1 -2 -3 -4 -4 -5 -5 -5 -5 -4 -5
6 6 7 7 7 7 7 7 7 7 7 7 6 6 6 6 6 5 5 4 2 1 -0 -1 -3 -3 -4 -5 -5 -5 -4 -4 -4
6 7 7 7 7 7 7 7 7 7 7 7 7 7 7 7 6 6 6 5 4 2 1 -1 -2 -3 -4 -5 -5 -5 -4 -4 -4
7 7 7 6 6 6 7 7 7 7 7 7 7 7 7 7 7 7 7 6 5 3 1 -0 -2 -3 -3 -4 -4 -4 -3 -3 -3
7 6 6 6 6 6 6 6 6 6 6 6 6 6 7 7 7 7 7 6 5 4 2 0 -1 -2 -2 -3 -3 -3 -3 -3 -3
7 6 6 5 5 5 5 5 5 6 6 6 6 6 6 7 7 7 6 5 4 3 2 1 -0 -1 -1 -2 -2 -3 -3 -2 -2
7 6 6 5 5 5 5 5 5 5 6 6 5 5 6 6 6 6 5 4 3 2 2 1 0 -1 -1 -1 -1 -1 -2 -1 -1
7 7 6 5 5 5 6 6 5 5 5 5 5 5 5 5 6 6 5 4 2 1 1 0 -0 -0 -1 -1 -1 -1 -1 -0 -0
8 8 7 6 5 6 6 6 6 5 5 5 4 4 5 5 5 5 4 3 2 0 -0 -0 -1 -1 -1 -1 -1 -0 -0 -0 -0